TimeCST,TemperatureF,Dew PointF,Humidity,Sea Level PressureIn,VisibilityMPH,Wind Direction,Wind SpeedMPH,Gust SpeedMPH,PrecipitationIn,Events,Conditions,WindDirDegrees,DateUTC
12:15 AM,58.5,36.5,44,30.01,10.0,SE,9.2,-,N/A,,Overcast,130,2013-03-09 06:15:00
12:35 AM,58.1,37.0,45,30.01,10.0,SE,9.2,-,N/A,,Overcast,130,2013-03-09 06:35:00
12:55 AM,58.1,37.0,45,30.02,10.0,SE,3.5,-,N/A,,Overcast,140,2013-03-09 06:55:00
1:15 AM,57.4,37.2,47,30.01,10.0,SE,5.8,-,N/A,,Mostly Cloudy,140,2013-03-09 07:15:00
1:35 AM,58.5,37.8,46,30.00,10.0,SSE,9.2,-,N/A,,Scattered Clouds,150,2013-03-09 07:35:00
1:55 AM,59.2,38.7,47,30.00,10.0,SSE,8.1,-,N/A,,Scattered Clouds,150,2013-03-09 07:55:00
2:15 AM,59.0,39.4,48,29.99,10.0,SSE,10.4,-,N/A,,Mostly Cloudy,150,2013-03-09 08:15:00
2:35 AM,58.3,40.1,51,29.98,10.0,ESE,9.2,-,N/A,,Scattered Clouds,120,2013-03-09 08:35:00
2:55 AM,52.7,38.3,58,29.96,10.0,ESE,8.1,-,N/A,,Clear,120,2013-03-09 08:55:00
3:15 AM,52.2,38.8,60,29.95,10.0,ESE,10.4,-,N/A,,Clear,120,2013-03-09 09:15:00
3:35 AM,56.3,42.3,59,29.95,10.0,SSE,6.9,-,N/A,,Clear,150,2013-03-09 09:35:00
3:55 AM,56.5,43.0,61,29.96,10.0,SSE,6.9,-,N/A,,Mostly Cloudy,150,2013-03-09 09:55:00
4:15 AM,55.8,43.0,62,29.95,10.0,SSE,5.8,-,N/A,,Overcast,150,2013-03-09 10:15:00
4:35 AM,54.5,42.8,65,29.96,10.0,SSE,4.6,-,N/A,,Overcast,160,2013-03-09 10:35:00
4:55 AM,53.2,41.7,65,29.96,10.0,North,-9999.0,-,N/A,,Overcast,0,2013-03-09 10:55:00
5:15 AM,53.8,42.1,65,29.96,10.0,North,-9999.0,-,N/A,,Overcast,0,2013-03-09 11:15:00
5:35 AM,52.7,41.2,65,29.96,10.0,ESE,9.2,-,N/A,,Overcast,110,2013-03-09 11:35:00
5:55 AM,52.7,41.7,66,29.96,10.0,ESE,9.2,-,N/A,,Overcast,120,2013-03-09 11:55:00
6:15 AM,52.9,42.1,67,29.95,10.0,ESE,8.1,-,N/A,,Overcast,120,2013-03-09 12:15:00
6:35 AM,52.7,42.3,68,29.95,10.0,ESE,6.9,-,N/A,,Overcast,120,2013-03-09 12:35:00
6:55 AM,52.7,43.0,70,29.95,10.0,ESE,9.2,-,N/A,,Overcast,120,2013-03-09 12:55:00
7:15 AM,53.6,43.9,70,29.94,10.0,ESE,9.2,-,N/A,,Overcast,120,2013-03-09 13:15:00
7:35 AM,54.5,45.7,72,29.93,10.0,ESE,10.4,16.1,N/A,,Overcast,120,2013-03-09 13:35:00
7:55 AM,55.8,46.9,72,29.93,10.0,ESE,10.4,-,N/A,,Overcast,120,2013-03-09 13:55:00
8:15 AM,56.5,47.8,73,29.94,10.0,SE,9.2,-,N/A,,Overcast,140,2013-03-09 14:15:00
8:35 AM,57.6,49.3,74,29.94,10.0,SE,6.9,16.1,N/A,,Overcast,140,2013-03-09 14:35:00
8:55 AM,58.1,50.5,76,29.94,10.0,SE,10.4,21.9,N/A,,Overcast,140,2013-03-09 14:55:00
9:15 AM,58.6,51.1,76,29.93,10.0,SE,8.1,19.6,N/A,,Overcast,140,2013-03-09 15:15:00
9:35 AM,59.0,51.8,77,29.93,10.0,SE,8.1,-,N/A,,Overcast,140,2013-03-09 15:35:00
9:55 AM,59.2,51.8,77,29.92,10.0,SE,9.2,23.0,N/A,,Overcast,140,2013-03-09 15:55:00
10:15 AM,59.9,52.2,76,29.91,10.0,SE,9.2,21.9,N/A,,Overcast,140,2013-03-09 16:15:00
10:35 AM,59.5,52.0,76,29.91,10.0,SE,9.2,21.9,N/A,,Overcast,140,2013-03-09 16:35:00
10:55 AM,59.9,52.0,75,29.91,10.0,SE,11.5,21.9,N/A,,Overcast,140,2013-03-09 16:55:00
11:15 AM,60.6,52.7,75,29.90,10.0,SSE,10.4,21.9,N/A,,Overcast,150,2013-03-09 17:15:00
11:35 AM,60.8,53.8,78,29.89,10.0,SSE,12.7,21.9,N/A,,Overcast,150,2013-03-09 17:35:00
11:55 AM,61.0,54.5,79,29.88,10.0,SSE,12.7,23.0,N/A,,Overcast,160,2013-03-09 17:55:00
12:15 PM,60.8,54.7,80,29.87,10.0,SSE,10.4,23.0,N/A,,Overcast,160,2013-03-09 18:15:00
12:35 PM,60.8,55.0,81,29.86,10.0,North,-9999.0,-,N/A,,Overcast,0,2013-03-09 18:35:00
12:55 PM,59.9,55.6,86,29.85,7.0,SSE,10.4,23.0,N/A,,Overcast,150,2013-03-09 18:55:00
1:15 PM,60.4,55.6,84,29.83,10.0,North,-9999.0,-,N/A,,Overcast,0,2013-03-09 19:15:00
1:35 PM,61.3,55.6,81,29.82,10.0,SSE,11.5,-,N/A,,Overcast,160,2013-03-09 19:35:00
1:55 PM,61.9,55.4,79,29.81,10.0,SSE,11.5,16.1,N/A,,Overcast,160,2013-03-09 19:55:00
2:15 PM,63.1,55.4,76,29.79,10.0,SSE,13.8,21.9,N/A,,Overcast,160,2013-03-09 20:15:00
2:35 PM,63.7,55.6,75,29.78,10.0,SSE,15.0,27.6,N/A,,Overcast,150,2013-03-09 20:35:00
2:55 PM,64.4,56.3,75,29.76,10.0,North,-9999.0,-,N/A,,Overcast,0,2013-03-09 20:55:00
3:15 PM,64.6,56.8,76,29.75,10.0,North,-9999.0,-,N/A,,Overcast,0,2013-03-09 21:15:00
3:35 PM,64.4,56.8,76,29.74,10.0,North,-9999.0,-,N/A,,Overcast,0,2013-03-09 21:35:00
3:55 PM,64.4,57.2,77,29.73,10.0,SSE,12.7,19.6,N/A,,Overcast,150,2013-03-09 21:55:00
4:15 PM,64.9,57.2,76,29.72,10.0,North,-9999.0,-,N/A,,Overcast,0,2013-03-09 22:15:00
4:35 PM,65.5,57.4,75,29.72,10.0,North,-9999.0,-,N/A,,Overcast,0,2013-03-09 22:35:00
4:55 PM,65.3,57.6,76,29.71,10.0,North,-9999.0,-,N/A,,Overcast,0,2013-03-09 22:55:00
5:15 PM,65.7,57.4,75,29.70,10.0,North,-9999.0,-,N/A,Thunderstorm,Thunderstorm,0,2013-03-09 23:15:00
5:35 PM,65.7,57.2,74,29.68,10.0,North,-9999.0,-,N/A,Thunderstorm,Thunderstorm,0,2013-03-09 23:35:00
6:15 PM,65.7,57.4,75,29.70,10.0,North,-9999.0,-,N/A,Thunderstorm,Thunderstorm,0,2013-03-10 00:15:00
6:35 PM,65.7,57.4,75,29.70,10.0,North,-9999.0,-,N/A,Thunderstorm,Thunderstorm,0,2013-03-10 00:35:00
6:55 PM,65.3,57.6,76,29.70,10.0,North,-9999.0,-,N/A,,Overcast,0,2013-03-10 00:55:00
7:15 PM,65.1,57.9,77,29.70,10.0,North,-9999.0,-,N/A,Thunderstorm,Overcast,0,2013-03-10 01:15:00
7:35 PM,64.6,58.1,79,29.70,10.0,North,-9999.0,-,N/A,,Overcast,0,2013-03-10 01:35:00
7:55 PM,64.8,58.1,79,29.70,10.0,North,-9999.0,-,N/A,,Overcast,0,2013-03-10 01:55:00
8:15 PM,64.6,58.1,79,29.70,10.0,North,-9999.0,-,N/A,,Overcast,0,2013-03-10 02:15:00
8:35 PM,64.4,57.6,78,29.72,10.0,North,-9999.0,-,N/A,,Overcast,0,2013-03-10 02:35:00
9:15 PM,59.2,56.3,90,29.77,5.0,WNW,10.4,21.9,N/A,Rain,Heavy Rain,290,2013-03-10 03:15:00
9:35 PM,57.9,55.8,92,29.80,3.0,SW,8.1,-,N/A,Rain-Thunderstorm,Heavy Thunderstorms and Rain,230,2013-03-10 03:35:00
9:55 PM,57.2,55.6,94,29.78,4.0,North,-9999.0,-,N/A,Rain-Thunderstorm,Heavy Thunderstorms and Rain,0,2013-03-10 03:55:00
10:15 PM,57.2,55.6,94,29.79,3.0,North,-9999.0,-,N/A,Rain-Thunderstorm,Thunderstorms and Rain,0,2013-03-10 04:15:00
10:35 PM,56.3,54.9,95,29.78,4.0,North,-9999.0,-,N/A,Rain-Thunderstorm,Thunderstorms and Rain,0,2013-03-10 04:35:00
10:55 PM,56.3,54.7,94,29.76,4.0,East,3.5,-,N/A,Rain-Thunderstorm,Thunderstorms and Rain,100,2013-03-10 04:55:00
11:15 PM,55.9,54.7,96,29.77,7.0,Calm,Calm,-,N/A,Rain-Thunderstorm,Rain,0,2013-03-10 05:15:00
11:35 PM,55.6,54.5,96,29.74,10.0,ESE,9.2,-,N/A,,Overcast,110,2013-03-10 05:35:00
11:55 PM,55.6,54.5,96,29.73,10.0,East,5.8,-,N/A,Rain,Rain,100,2013-03-10 05:55:00